This is the latest recevied weather packets stored in our database for station/object AB4KY. If no packets are shown the sender has not sent any weather packets the latest 10 day(s).
| Time | Temp. | Humidity | Pressure | Rain* | Wind** | Luminosity | Snow |
|---|---|---|---|---|---|---|---|
| 1777313156 | 23.89° C | 70% | 1011.3 hPa | 0 mm | - | 165 W/m² | - |
| 1777312852 | 23.89° C | 69% | 1011.8 hPa | 0 mm | - | 174 W/m² | - |
| 1777312549 | 23.89° C | 70% | 1012 hPa | 0 mm | - | 174 W/m² | - |
| 1777312246 | 23.33° C | 71% | 1012.1 hPa | 0 mm | - | 184 W/m² | - |
| 1777311943 | 23.33° C | 74% | 1011.6 hPa | 0 mm | - | 196 W/m² | - |
| 1777311640 | 23.33° C | 73% | 1011.3 hPa | 0 mm | - | 181 W/m² | - |
| 1777311338 | 23.33° C | 70% | 1010.9 hPa | 0 mm | - | 191 W/m² | - |
| 1777311035 | 23.33° C | 70% | 1011.3 hPa | 0 mm | - | 187 W/m² | - |
| 1777310733 | 22.78° C | 71% | 1011.1 hPa | 0 mm | - | 182 W/m² | - |
| 1777310430 | 22.78° C | 73% | 1011.5 hPa | 0 mm | - | 137 W/m² | - |
| 1777310127 | 22.78° C | 72% | 1011.7 hPa | 0 mm | - | 110 W/m² | - |
| 1777309825 | 22.78° C | 73% | 1012.2 hPa | 0 mm | - | 108 W/m² | - |
| 1777309522 | 22.78° C | 73% | 1012.2 hPa | 0 mm | - | 92 W/m² | - |
| 1777309219 | 22.78° C | 73% | 1012.6 hPa | 0 mm | - | 105 W/m² | - |
| 1777308918 | 23.33° C | 73% | 1012.4 hPa | 0 mm | - | 148 W/m² | - |
| 1777308613 | 23.33° C | 72% | 1012.1 hPa | 0 mm | - | 188 W/m² | - |
| 1777308309 | 23.33° C | 70% | 1012.3 hPa | 0 mm | - | 196 W/m² | - |
| 1777308004 | 23.33° C | 72% | 1012.1 hPa | 0 mm | - | 250 W/m² | - |
| 1777307703 | 23.33° C | 71% | 1012.2 hPa | 0 mm | - | 317 W/m² | - |
| 1777307398 | 23.33° C | 72% | 1012.2 hPa | 0 mm | - | 322 W/m² | - |
| 1777307096 | 23.89° C | 70% | 1012.1 hPa | 0 mm | - | 385 W/m² | - |
| 1777306793 | 23.33° C | 72% | 1011.9 hPa | 0 mm | - | 454 W/m² | - |
| 1777306490 | 22.78° C | 73% | 1011.9 hPa | 0 mm | - | 328 W/m² | - |
| 1777306186 | 22.22° C | 73% | 1012 hPa | 0 mm | - | 314 W/m² | - |
| 1777305881 | 22.22° C | 75% | 1012.1 hPa | 0 mm | - | 239 W/m² | - |
* Rain latest hour (hover to see other rain measurements)
** Current wind speed in m/s (hover to see current wind gust speed)